• In Moldova, Republic
  • List of Countries
  • For 7 days
  • Water Temperature
  • Satellite Maps
  • Weather Map
  • Weather Widgets
  • user-avatar
    Login

    Hourly Weather Albany

    Today, 30 April, Sunday

    Time Temperature Precipitation Wind Pressure Humidity
    00:00 +16°C° 0 mm 3 mps 761 mmHg 89%
    01:00 +15°C° 0 mm 4 mps 761 mmHg 91%
    02:00 +15°C° 0 mm 4 mps 761 mmHg 93%
    03:00 +15°C° 0 mm 4 mps 760 mmHg 92%
    04:00 +15°C° 0 mm 5 mps 760 mmHg 91%
    05:00 +16°C° 0 mm 5 mps 760 mmHg 91%
    06:00 +16°C° 0.1 mm 6 mps 760 mmHg 89%
    07:00 +17°C° 0.1 mm 6 mps 761 mmHg 88%
    08:00 +17°C° 0.1 mm 6 mps 761 mmHg 87%
    09:00 +17°C° 0.2 mm 7 mps 761 mmHg 85%
    10:00 +17°C° 0.2 mm 7 mps 761 mmHg 83%
    11:00 +16°C° 0.2 mm 7 mps 762 mmHg 81%
    12:00 +16°C° 0 mm 7 mps 762 mmHg 75%
    13:00 +16°C° 0 mm 7 mps 762 mmHg 70%
    14:00 +16°C° 0 mm 6 mps 762 mmHg 65%
    15:00 +16°C° 0 mm 6 mps 762 mmHg 64%
    16:00 +15°C° 0 mm 5 mps 763 mmHg 64%
    17:00 +15°C° 0 mm 5 mps 763 mmHg 63%
    18:00 +14°C° 0 mm 4 mps 764 mmHg 65%
    19:00 +14°C° 0 mm 4 mps 764 mmHg 66%
    20:00 +13°C° 0 mm 4 mps 765 mmHg 68%
    21:00 +13°C° 0 mm 4 mps 765 mmHg 68%
    22:00 +13°C° 0 mm 3 mps 766 mmHg 69%
    23:00 +13°C° 0 mm 3 mps 766 mmHg 69%

    Tomorrow, 1 May, Monday

    Time Temperature Precipitation Wind Pressure Humidity
    00:00 +13°C° 0 mm 3 mps 766 mmHg 70%
    01:00 +12°C° 0 mm 3 mps 766 mmHg 71%
    02:00 +12°C° 0 mm 3 mps 766 mmHg 71%
    03:00 +12°C° 0 mm 3 mps 766 mmHg 72%
    04:00 +12°C° 0 mm 3 mps 766 mmHg 73%
    05:00 +12°C° 0 mm 3 mps 766 mmHg 73%
    06:00 +13°C° 0 mm 2 mps 767 mmHg 72%
    07:00 +13°C° 0 mm 2 mps 767 mmHg 70%
    08:00 +14°C° 0 mm 2 mps 767 mmHg 68%
    09:00 +15°C° 0 mm 2 mps 767 mmHg 64%
    10:00 +16°C° 0 mm 3 mps 767 mmHg 60%
    11:00 +17°C° 0 mm 3 mps 767 mmHg 56%
    12:00 +17°C° 0 mm 3 mps 767 mmHg 56%
    13:00 +17°C° 0 mm 3 mps 767 mmHg 56%
    14:00 +17°C° 0 mm 3 mps 766 mmHg 56%
    15:00 +16°C° 0 mm 3 mps 766 mmHg 59%
    16:00 +15°C° 0 mm 4 mps 766 mmHg 62%
    17:00 +14°C° 0 mm 4 mps 766 mmHg 65%
    18:00 +13°C° 0 mm 4 mps 767 mmHg 69%
    19:00 +13°C° 0 mm 3 mps 767 mmHg 74%
    20:00 +12°C° 0 mm 3 mps 768 mmHg 78%
    21:00 +12°C° 0 mm 3 mps 768 mmHg 79%
    22:00 +12°C° 0 mm 4 mps 768 mmHg 81%
    23:00 +11°C° 0 mm 4 mps 768 mmHg 82%

    Day after tomorrow, 2 May, Tuesday

    Time Temperature Precipitation Wind Pressure Humidity
    00:00 +11°C° 0 mm 4 mps 767 mmHg 83%
    01:00 +11°C° 0 mm 4 mps 767 mmHg 84%
    02:00 +11°C° 0 mm 4 mps 767 mmHg 86%
    03:00 +10°C° 0 mm 4 mps 767 mmHg 86%
    04:00 +10°C° 0 mm 4 mps 767 mmHg 86%
    05:00 +10°C° 0 mm 4 mps 766 mmHg 86%
    06:00 +11°C° 0 mm 4 mps 767 mmHg 82%
    07:00 +11°C° 0 mm 4 mps 767 mmHg 78%
    08:00 +11°C° 0 mm 4 mps 767 mmHg 74%
    09:00 +13°C° 0 mm 4 mps 767 mmHg 66%
    10:00 +15°C° 0 mm 4 mps 767 mmHg 59%
    11:00 +18°C° 0 mm 4 mps 766 mmHg 51%
    12:00 +20°C° 0 mm 4 mps 766 mmHg 48%
    13:00 +21°C° 0 mm 4 mps 765 mmHg 46%
    14:00 +22°C° 0 mm 4 mps 764 mmHg 43%
    15:00 +21°C° 0 mm 4 mps 764 mmHg 47%
    16:00 +20°C° 0 mm 4 mps 764 mmHg 51%
    17:00 +19°C° 0 mm 5 mps 764 mmHg 55%
    18:00 +17°C° 0 mm 5 mps 764 mmHg 58%
    19:00 +16°C° 0 mm 5 mps 764 mmHg 61%
    20:00 +15°C° 0 mm 6 mps 764 mmHg 63%
    21:00 +15°C° 0 mm 6 mps 764 mmHg 62%
    22:00 +15°C° 0 mm 6 mps 763 mmHg 61%
    23:00 +15°C° 0 mm 5 mps 763 mmHg 60%

    3 May, Wednesday

    Time Temperature Precipitation Wind Pressure Humidity
    00:00 +15°C° 0 mm 5 mps 763 mmHg 59%
    01:00 +15°C° 0 mm 5 mps 762 mmHg 58%
    02:00 +15°C° 0 mm 6 mps 762 mmHg 57%
    03:00 +15°C° 0 mm 6 mps 762 mmHg 56%
    04:00 +15°C° 0 mm 6 mps 761 mmHg 55%
    05:00 +15°C° 0 mm 6 mps 761 mmHg 54%
    06:00 +15°C° 0 mm 6 mps 761 mmHg 54%
    07:00 +16°C° 0 mm 6 mps 761 mmHg 53%
    08:00 +16°C° 0 mm 7 mps 761 mmHg 52%
    09:00 +19°C° 0 mm 6 mps 761 mmHg 48%
    10:00 +21°C° 0 mm 6 mps 761 mmHg 43%
    11:00 +23°C° 0 mm 6 mps 760 mmHg 39%
    12:00 +24°C° 0 mm 6 mps 760 mmHg 36%
    13:00 +26°C° 0 mm 6 mps 759 mmHg 34%
    14:00 +27°C° 0 mm 5 mps 758 mmHg 31%
    15:00 +26°C° 0 mm 5 mps 758 mmHg 34%
    16:00 +25°C° 0 mm 4 mps 758 mmHg 38%
    17:00 +23°C° 0 mm 4 mps 758 mmHg 41%
    18:00 +22°C° 0 mm 4 mps 758 mmHg 43%
    19:00 +21°C° 0 mm 4 mps 758 mmHg 45%
    20:00 +20°C° 0 mm 4 mps 758 mmHg 47%
    21:00 +20°C° 0 mm 4 mps 758 mmHg 50%
    22:00 +19°C° 0 mm 4 mps 758 mmHg 53%
    23:00 +19°C° 0 mm 4 mps 758 mmHg 55%

    4 May, Thursday

    Time Temperature Precipitation Wind Pressure Humidity
    00:00 +17°C° 0 mm 5 mps 758 mmHg 61%
    01:00 +17°C° 0 mm 5 mps 758 mmHg 67%
    02:00 +17°C° 0 mm 5 mps 757 mmHg 73%
    03:00 +17°C° 0 mm 5 mps 757 mmHg 76%
    04:00 +17°C° 0 mm 5 mps 758 mmHg 79%
    05:00 +17°C° 0 mm 5 mps 758 mmHg 82%
    06:00 +17°C° 0 mm 5 mps 758 mmHg 80%
    07:00 +19°C° 0 mm 5 mps 758 mmHg 77%
    08:00 +19°C° 0 mm 6 mps 758 mmHg 75%
    09:00 +20°C° 0.1 mm 6 mps 758 mmHg 70%
    10:00 +21°C° 0.1 mm 6 mps 758 mmHg 66%
    11:00 +22°C° 0.1 mm 6 mps 758 mmHg 61%
    12:00 +22°C° 0.1 mm 6 mps 758 mmHg 62%
    13:00 +22°C° 0.1 mm 6 mps 758 mmHg 63%
    14:00 +22°C° 0.1 mm 6 mps 758 mmHg 65%
    15:00 +21°C° 0.2 mm 6 mps 758 mmHg 68%
    16:00 +21°C° 0.2 mm 5 mps 758 mmHg 71%
    17:00 +20°C° 0.2 mm 5 mps 758 mmHg 74%
    18:00 +19°C° 0.1 mm 5 mps 759 mmHg 79%
    19:00 +17°C° 0.1 mm 5 mps 760 mmHg 83%
    20:00 +17°C° 0.1 mm 5 mps 760 mmHg 88%
    21:00 +17°C° 0 mm 4 mps 760 mmHg 88%
    22:00 +17°C° 0 mm 4 mps 761 mmHg 89%
    23:00 +17°C° 0 mm 4 mps 761 mmHg 90%

    5 May, Friday

    Time Temperature Precipitation Wind Pressure Humidity
    00:00 +17°C° 0.1 mm 4 mps 761 mmHg 89%
    01:00 +15°C° 0.1 mm 4 mps 761 mmHg 88%
    02:00 +16°C° 0.1 mm 3 mps 761 mmHg 87%
    03:00 +16°C° 0 mm 3 mps 762 mmHg 87%
    04:00 +16°C° 0 mm 3 mps 762 mmHg 86%
    05:00 +16°C° 0 mm 3 mps 762 mmHg 85%
    06:00 +16°C° 0 mm 3 mps 763 mmHg 83%
    07:00 +16°C° 0 mm 3 mps 763 mmHg 82%
    08:00 +16°C° 0 mm 2 mps 764 mmHg 80%
    09:00 +18°C° 0 mm 2 mps 764 mmHg 71%
    10:00 +19°C° 0 mm 3 mps 764 mmHg 62%
    11:00 +20°C° 0 mm 3 mps 764 mmHg 53%
    12:00 +21°C° 0 mm 3 mps 764 mmHg 51%
    13:00 +21°C° 0 mm 3 mps 764 mmHg 49%
    14:00 +21°C° 0 mm 3 mps 764 mmHg 47%
    15:00 +20°C° 0 mm 3 mps 765 mmHg 52%
    16:00 +19°C° 0 mm 3 mps 765 mmHg 57%
    17:00 +18°C° 0 mm 3 mps 765 mmHg 63%
    18:00 +17°C° 0 mm 2 mps 766 mmHg 71%
    19:00 +16°C° 0 mm 2 mps 766 mmHg 79%
    20:00 +14°C° 0 mm 2 mps 767 mmHg 87%
    21:00 +14°C° 0 mm 1 mps 767 mmHg 88%
    22:00 +13°C° 0 mm 1 mps 767 mmHg 89%
    23:00 +13°C° 0 mm 1 mps 767 mmHg 90%
    Show more